Time,TemperatureF,DewpointF,PressureIn,WindDirection,WindDirectionDegrees,WindSpeedMPH,WindSpeedGustMPH,Humidity,HourlyPrecipIn,Conditions,Clouds,dailyrainin,SoftwareType,DateUTC
2013-04-06 00:00:00,48.7,29.4,27.99,East,90,0.0,0.0,47,0.00,,---,0.00,VWS V14.01,2013-04-06 04:00:00,
2013-04-06 00:02:00,48.7,29.4,27.99,East,90,0.0,0.0,47,0.00,,---,0.00,VWS V14.01,2013-04-06 04:02:00,
2013-04-06 00:07:00,48.9,29.6,27.99,East,90,0.0,0.0,47,0.00,,---,0.00,VWS V14.01,2013-04-06 04:07:00,
2013-04-06 00:12:00,49.1,29.8,27.99,ESE,112,0.0,0.0,47,0.00,,---,0.00,VWS V14.01,2013-04-06 04:12:00,
2013-04-06 00:17:00,48.9,29.6,27.99,ESE,112,0.0,0.0,47,0.00,,---,0.00,VWS V14.01,2013-04-06 04:17:00,
2013-04-06 00:22:00,48.9,29.6,28.02,NE,45,0.0,0.0,47,0.00,,---,0.00,VWS V14.01,2013-04-06 04:22:00,
2013-04-06 00:27:00,49.1,29.8,28.02,NE,45,0.0,0.0,47,0.00,,---,0.00,VWS V14.01,2013-04-06 04:27:00,
2013-04-06 00:32:00,49.1,29.8,28.02,NE,45,0.0,0.0,47,0.00,,---,0.00,VWS V14.01,2013-04-06 04:32:00,
2013-04-06 00:37:00,48.7,29.4,28.02,WSW,248,0.0,0.0,47,0.00,,---,0.00,VWS V14.01,2013-04-06 04:37:00,
2013-04-06 00:42:00,48.7,29.4,28.02,WSW,248,0.0,0.0,47,0.00,,---,0.00,VWS V14.01,2013-04-06 04:42:00,
2013-04-06 00:47:00,48.7,29.4,28.02,NW,315,0.0,0.0,47,0.00,,---,0.00,VWS V14.01,2013-04-06 04:47:00,
2013-04-06 00:52:00,48.7,29.4,28.02,WSW,248,0.0,0.0,47,0.00,,---,0.00,VWS V14.01,2013-04-06 04:52:00,
2013-04-06 00:57:00,48.7,29.4,28.02,WNW,292,0.0,0.0,47,0.00,,---,0.00,VWS V14.01,2013-04-06 04:57:00,
2013-04-06 01:02:00,48.6,29.3,28.02,WNW,292,0.0,0.0,47,0.00,,---,0.00,VWS V14.01,2013-04-06 05:02:00,
2013-04-06 01:07:00,48.7,29.4,28.02,South,180,0.0,0.0,47,0.00,,---,0.00,VWS V14.01,2013-04-06 05:07:00,
2013-04-06 01:12:00,48.7,29.4,28.02,WSW,248,0.0,0.0,47,0.00,,---,0.00,VWS V14.01,2013-04-06 05:12:00,
2013-04-06 01:17:00,48.6,29.3,28.02,WSW,248,0.0,0.0,47,0.00,,---,0.00,VWS V14.01,2013-04-06 05:17:00,
2013-04-06 01:22:00,48.6,29.3,28.02,WSW,248,0.0,0.0,47,0.00,,---,0.00,VWS V14.01,2013-04-06 05:22:00,
2013-04-06 01:28:00,48.4,29.1,28.02,WNW,292,0.0,0.0,47,0.00,,---,0.00,VWS V14.01,2013-04-06 05:28:00,
2013-04-06 01:33:00,48.2,28.9,28.02,NW,315,0.0,0.0,47,0.00,,---,0.00,VWS V14.01,2013-04-06 05:33:00,
2013-04-06 01:38:00,48.2,28.9,28.02,NW,315,0.0,0.0,47,0.00,,---,0.00,VWS V14.01,2013-04-06 05:38:00,
2013-04-06 01:43:00,48.4,29.1,28.02,NW,315,0.0,0.0,47,0.00,,---,0.00,VWS V14.01,2013-04-06 05:43:00,
2013-04-06 01:48:00,48.4,29.1,28.02,NW,315,0.0,0.0,47,0.00,,---,0.00,VWS V14.01,2013-04-06 05:48:00,
2013-04-06 01:53:00,48.4,29.1,28.02,NW,315,0.0,0.0,47,0.00,,---,0.00,VWS V14.01,2013-04-06 05:53:00,
2013-04-06 01:58:00,48.4,29.1,28.02,WNW,292,0.0,0.0,47,0.00,,---,0.00,VWS V14.01,2013-04-06 05:58:00,
2013-04-06 02:03:00,48.6,29.3,28.02,WNW,292,0.0,0.0,47,0.00,,---,0.00,VWS V14.01,2013-04-06 06:03:00,
2013-04-06 02:08:00,48.4,29.1,28.02,WNW,292,0.0,0.0,47,0.00,,---,0.00,VWS V14.01,2013-04-06 06:08:00,
2013-04-06 02:13:00,48.6,29.3,28.02,South,180,0.0,0.0,47,0.00,,---,0.00,VWS V14.01,2013-04-06 06:13:00,
2013-04-06 02:18:00,48.6,29.3,28.02,South,180,0.0,0.0,47,0.00,,---,0.00,VWS V14.01,2013-04-06 06:18:00,
2013-04-06 02:23:00,48.6,29.3,28.02,NNW,338,0.0,0.0,47,0.00,,---,0.00,VWS V14.01,2013-04-06 06:23:00,
2013-04-06 02:28:00,48.6,29.3,28.02,NW,315,0.0,0.0,47,0.00,,---,0.00,VWS V14.01,2013-04-06 06:28:00,
2013-04-06 02:33:00,48.6,29.3,28.02,NW,315,0.0,0.0,47,0.00,,---,0.00,VWS V14.01,2013-04-06 06:33:00,
2013-04-06 02:38:00,48.6,29.3,28.02,NW,315,0.0,0.0,47,0.00,,---,0.00,VWS V14.01,2013-04-06 06:38:00,
2013-04-06 02:43:00,48.4,29.1,28.02,NW,315,0.0,0.0,47,0.00,,---,0.00,VWS V14.01,2013-04-06 06:43:00,
2013-04-06 02:48:00,48.4,29.1,28.02,NW,315,0.0,0.0,47,0.00,,---,0.00,VWS V14.01,2013-04-06 06:48:00,
2013-04-06 02:53:00,48.4,29.1,28.02,NW,315,0.0,0.0,47,0.00,,---,0.00,VWS V14.01,2013-04-06 06:53:00,
2013-04-06 02:58:00,48.6,29.3,28.02,NNW,338,0.0,0.0,47,0.00,,---,0.00,VWS V14.01,2013-04-06 06:58:00,
2013-04-06 03:03:00,48.4,29.1,28.02,NNW,338,0.0,0.0,47,0.00,,---,0.00,VWS V14.01,2013-04-06 07:03:00,
2013-04-06 03:09:00,48.7,29.4,28.02,SW,225,0.0,0.0,47,0.00,,---,0.00,VWS V14.01,2013-04-06 07:09:00,
2013-04-06 03:14:00,48.6,29.3,28.02,North,0,0.0,0.0,47,0.00,,---,0.00,VWS V14.01,2013-04-06 07:14:00,
2013-04-06 03:19:00,48.6,29.3,28.02,North,0,0.0,0.0,47,0.00,,---,0.00,VWS V14.01,2013-04-06 07:19:00,
2013-04-06 03:24:00,48.7,29.4,27.99,SE,135,0.0,0.0,47,0.00,,---,0.00,VWS V14.01,2013-04-06 07:24:00,
2013-04-06 03:29:00,48.7,29.4,27.99,South,180,0.0,0.0,47,0.00,,---,0.00,VWS V14.01,2013-04-06 07:29:00,
2013-04-06 03:34:00,48.7,29.4,27.99,WNW,292,0.0,0.0,47,0.00,,---,0.00,VWS V14.01,2013-04-06 07:34:00,
2013-04-06 03:39:00,48.7,29.4,27.99,West,270,0.0,0.0,47,0.00,,---,0.00,VWS V14.01,2013-04-06 07:39:00,
2013-04-06 03:44:00,48.7,29.4,27.99,NNW,338,0.0,0.0,47,0.00,,---,0.00,VWS V14.01,2013-04-06 07:44:00,
2013-04-06 03:49:00,48.6,29.3,27.99,WSW,248,0.0,0.0,47,0.00,,---,0.00,VWS V14.01,2013-04-06 07:49:00,
2013-04-06 03:54:00,48.4,29.1,27.99,NNW,338,0.0,0.0,47,0.00,,---,0.00,VWS V14.01,2013-04-06 07:54:00,
2013-04-06 03:59:00,48.4,29.1,27.99,NNW,338,0.0,0.0,47,0.00,,---,0.00,VWS V14.01,2013-04-06 07:59:00,
2013-04-06 04:04:00,48.4,29.1,27.99,NNW,338,0.0,0.0,47,0.00,,---,0.00,VWS V14.01,2013-04-06 08:04:00,
2013-04-06 04:09:00,48.4,29.1,28.02,WSW,248,0.0,0.0,47,0.00,,---,0.00,VWS V14.01,2013-04-06 08:09:00,
2013-04-06 04:14:00,48.4,28.6,28.02,WSW,248,0.0,0.0,46,0.00,,---,0.00,VWS V14.01,2013-04-06 08:14:00,
2013-04-06 04:20:00,48.2,28.4,28.02,West,270,0.0,0.0,46,0.00,,---,0.00,VWS V14.01,2013-04-06 08:20:00,
2013-04-06 04:25:00,48.4,28.6,27.99,North,0,0.0,0.0,46,0.00,,---,0.00,VWS V14.01,2013-04-06 08:25:00,
2013-04-06 04:30:00,48.4,28.6,27.99,NNE,22,0.0,0.0,46,0.00,,---,0.00,VWS V14.01,2013-04-06 08:30:00,
2013-04-06 04:35:00,48.4,28.6,27.99,WSW,248,0.0,0.0,46,0.00,,---,0.00,VWS V14.01,2013-04-06 08:35:00,
2013-04-06 04:40:00,48.4,28.6,27.99,NNW,338,0.0,0.0,46,0.00,,---,0.00,VWS V14.01,2013-04-06 08:40:00,
2013-04-06 04:45:00,48.4,28.6,27.99,WSW,248,0.0,0.0,46,0.00,,---,0.00,VWS V14.01,2013-04-06 08:45:00,
2013-04-06 04:50:00,48.4,28.6,27.99,WNW,292,0.0,0.0,46,0.00,,---,0.00,VWS V14.01,2013-04-06 08:50:00,
2013-04-06 04:55:00,48.4,28.6,27.99,NW,315,0.0,0.0,46,0.00,,---,0.00,VWS V14.01,2013-04-06 08:55:00,
2013-04-06 05:00:00,48.4,28.6,27.99,NW,315,0.0,0.0,46,0.00,,---,0.00,VWS V14.01,2013-04-06 09:00:00,
2013-04-06 05:05:00,48.4,28.6,27.99,NW,315,0.0,0.0,46,0.00,,---,0.00,VWS V14.01,2013-04-06 09:05:00,
2013-04-06 05:10:00,48.2,28.4,27.99,WSW,248,0.0,0.0,46,0.00,,---,0.00,VWS V14.01,2013-04-06 09:10:00,
2013-04-06 05:15:00,48.2,28.4,27.99,WSW,248,0.0,0.0,46,0.00,,---,0.00,VWS V14.01,2013-04-06 09:15:00,
2013-04-06 05:20:00,48.0,28.2,27.99,NNW,338,0.0,0.0,46,0.00,,---,0.00,VWS V14.01,2013-04-06 09:20:00,
2013-04-06 05:25:00,48.0,28.2,27.99,NNW,338,0.0,0.0,46,0.00,,---,0.00,VWS V14.01,2013-04-06 09:25:00,
2013-04-06 05:30:00,48.0,28.2,27.99,NNW,338,0.0,0.0,46,0.00,,---,0.00,VWS V14.01,2013-04-06 09:30:00,
2013-04-06 05:35:00,48.0,28.2,27.99,NW,315,0.0,0.0,46,0.00,,---,0.00,VWS V14.01,2013-04-06 09:35:00,
2013-04-06 05:40:00,48.2,28.4,27.99,NW,315,0.0,0.0,46,0.00,,---,0.00,VWS V14.01,2013-04-06 09:40:00,
2013-04-06 05:45:00,48.2,28.4,27.99,NW,315,0.0,0.0,46,0.00,,---,0.00,VWS V14.01,2013-04-06 09:45:00,
2013-04-06 05:50:00,48.2,28.4,27.99,ENE,68,0.0,0.0,46,0.00,,---,0.00,VWS V14.01,2013-04-06 09:50:00,
2013-04-06 05:55:00,48.0,28.2,28.02,NNW,338,0.0,0.0,46,0.00,,---,0.00,VWS V14.01,2013-04-06 09:55:00,
2013-04-06 06:00:00,48.2,28.4,28.02,NNW,338,0.0,0.0,46,0.00,,---,0.00,VWS V14.01,2013-04-06 10:00:00,
2013-04-06 06:05:00,48.2,28.4,28.02,NNW,338,0.0,0.0,46,0.00,,---,0.00,VWS V14.01,2013-04-06 10:05:00,
2013-04-06 06:10:00,48.2,27.9,28.02,NNW,338,0.0,0.0,45,0.00,,---,0.00,VWS V14.01,2013-04-06 10:10:00,
2013-04-06 06:15:00,48.2,27.9,28.02,North,0,0.0,0.0,45,0.00,,---,0.00,VWS V14.01,2013-04-06 10:15:00,
2013-04-06 06:20:00,48.2,27.9,28.02,WNW,292,0.0,0.0,45,0.00,,---,0.00,VWS V14.01,2013-04-06 10:20:00,
2013-04-06 06:26:00,48.4,28.0,28.02,WNW,292,0.0,0.0,45,0.00,,---,0.00,VWS V14.01,2013-04-06 10:26:00,
2013-04-06 06:31:00,48.6,28.2,28.02,NNW,338,0.0,0.0,45,0.00,,---,0.00,VWS V14.01,2013-04-06 10:31:00,
2013-04-06 06:36:00,48.4,28.0,28.02,SW,225,0.0,0.0,45,0.00,,---,0.00,VWS V14.01,2013-04-06 10:36:00,
2013-04-06 06:41:00,48.6,28.2,28.02,SE,135,0.0,0.0,45,0.00,,---,0.00,VWS V14.01,2013-04-06 10:41:00,
2013-04-06 06:46:00,48.7,28.4,28.02,SSW,202,0.0,0.0,45,0.00,,---,0.00,VWS V14.01,2013-04-06 10:46:00,
2013-04-06 06:51:00,48.7,28.4,28.02,WNW,292,0.0,0.0,45,0.00,,---,0.00,VWS V14.01,2013-04-06 10:51:00,
2013-04-06 06:57:00,48.9,28.5,28.02,WNW,292,0.0,0.0,45,0.00,,---,0.00,VWS V14.01,2013-04-06 10:57:00,
2013-04-06 07:02:00,48.9,28.5,28.02,ESE,112,0.0,0.0,45,0.00,,---,0.00,VWS V14.01,2013-04-06 11:02:00,
2013-04-06 07:07:00,48.9,28.5,28.02,South,180,0.0,0.0,45,0.00,,---,0.00,VWS V14.01,2013-04-06 11:07:00,
2013-04-06 07:12:00,49.1,28.7,28.02,West,270,0.0,0.0,45,0.00,,---,0.00,VWS V14.01,2013-04-06 11:12:00,
2013-04-06 07:17:00,48.9,28.5,28.02,SSE,158,1.6,1.6,45,0.00,,---,0.00,VWS V14.01,2013-04-06 11:17:00,
2013-04-06 07:22:00,49.1,28.7,28.02,East,90,0.0,2.2,45,0.00,,---,0.00,VWS V14.01,2013-04-06 11:22:00,
2013-04-06 07:27:00,49.1,28.7,28.02,South,180,0.0,0.0,45,0.00,,---,0.00,VWS V14.01,2013-04-06 11:27:00,
2013-04-06 07:32:00,49.1,28.7,28.02,SW,225,0.0,0.0,45,0.00,,---,0.00,VWS V14.01,2013-04-06 11:32:00,
2013-04-06 07:33:00,48.9,28.5,28.02,SW,225,0.0,0.0,45,0.00,,---,0.00,VWS V14.01,2013-04-06 11:33:00,
2013-04-06 07:38:00,48.9,28.5,28.02,ESE,112,0.0,0.0,45,0.00,,---,0.00,VWS V14.01,2013-04-06 11:38:00,
2013-04-06 07:43:00,48.7,28.4,28.02,SSE,158,0.0,0.0,45,0.00,,---,0.00,VWS V14.01,2013-04-06 11:43:00,
2013-04-06 07:48:00,49.1,28.7,28.02,East,90,0.0,0.0,45,0.00,,---,0.00,VWS V14.01,2013-04-06 11:48:00,
2013-04-06 07:53:00,49.3,28.9,28.05,WSW,248,0.0,0.0,45,0.00,,---,0.00,VWS V14.01,2013-04-06 11:53:00,
2013-04-06 07:58:00,49.5,29.0,28.05,WSW,248,0.0,0.0,45,0.00,,---,0.00,VWS V14.01,2013-04-06 11:58:00,
2013-04-06 08:03:00,49.8,29.4,28.05,NNW,338,0.0,0.0,45,0.00,,---,0.00,VWS V14.01,2013-04-06 12:03:00,
2013-04-06 08:08:00,50.2,29.1,28.05,SE,135,0.0,0.0,44,0.00,,---,0.00,VWS V14.01,2013-04-06 12:08:00,
2013-04-06 08:13:00,50.5,29.5,28.05,North,0,0.0,0.0,44,0.00,,---,0.00,VWS V14.01,2013-04-06 12:13:00,
2013-04-06 08:18:00,51.1,30.5,28.05,SSW,202,0.0,0.0,45,0.00,,---,0.00,VWS V14.01,2013-04-06 12:18:00,
2013-04-06 08:23:00,51.6,31.0,28.05,WNW,292,0.0,0.0,45,0.00,,---,0.00,VWS V14.01,2013-04-06 12:23:00,
2013-04-06 08:28:00,53.2,31.9,28.05,WSW,248,0.0,0.0,44,0.00,,---,0.00,VWS V14.01,2013-04-06 12:28:00,
2013-04-06 08:33:00,54.3,32.3,28.05,SE,135,0.0,0.0,43,0.00,,---,0.00,VWS V14.01,2013-04-06 12:33:00,
2013-04-06 08:38:00,55.4,32.7,28.05,ESE,112,0.0,0.0,42,0.00,,---,0.00,VWS V14.01,2013-04-06 12:38:00,
2013-04-06 08:43:00,55.9,33.2,28.05,East,90,1.3,1.3,42,0.00,,---,0.00,VWS V14.01,2013-04-06 12:43:00,
2013-04-06 08:48:00,56.1,32.8,28.05,NE,45,2.7,2.7,41,0.00,,---,0.00,VWS V14.01,2013-04-06 12:48:00,
2013-04-06 08:54:00,55.9,32.0,28.05,SE,135,2.5,2.5,40,0.00,,---,0.00,VWS V14.01,2013-04-06 12:54:00,
2013-04-06 08:59:00,56.1,32.2,28.05,East,90,1.1,1.1,40,0.00,,---,0.00,VWS V14.01,2013-04-06 12:59:00,
2013-04-06 09:04:00,56.7,33.2,28.05,NNW,338,0.0,0.9,41,0.00,,---,0.00,VWS V14.01,2013-04-06 13:04:00,
2013-04-06 09:09:00,56.8,33.4,28.05,East,90,0.0,0.9,41,0.00,,---,0.00,VWS V14.01,2013-04-06 13:09:00,
2013-04-06 09:14:00,56.7,33.2,28.05,SSE,158,0.9,0.9,41,0.00,,---,0.00,VWS V14.01,2013-04-06 13:14:00,
2013-04-06 09:19:00,57.2,32.5,28.05,East,90,1.6,3.1,39,0.00,,---,0.00,VWS V14.01,2013-04-06 13:19:00,
2013-04-06 09:24:00,57.4,32.7,28.05,SSW,202,2.0,3.1,39,0.00,,---,0.00,VWS V14.01,2013-04-06 13:24:00,
2013-04-06 09:29:00,57.7,33.0,28.05,SSE,158,0.0,0.9,39,0.00,,---,0.00,VWS V14.01,2013-04-06 13:29:00,
2013-04-06 09:34:00,58.3,33.5,28.05,East,90,0.0,0.0,39,0.00,,---,0.00,VWS V14.01,2013-04-06 13:34:00,
2013-04-06 09:39:00,58.3,33.5,28.05,SE,135,0.0,1.1,39,0.00,,---,0.00,VWS V14.01,2013-04-06 13:39:00,
2013-04-06 09:45:00,60.4,35.4,28.05,West,270,0.0,1.3,39,0.00,,---,0.00,VWS V14.01,2013-04-06 13:45:00,
2013-04-06 09:50:00,60.6,34.9,28.05,East,90,0.0,2.7,38,0.00,,---,0.00,VWS V14.01,2013-04-06 13:50:00,
2013-04-06 09:55:00,61.0,34.5,28.05,NNE,22,0.0,2.9,37,0.00,,---,0.00,VWS V14.01,2013-04-06 13:55:00,
2013-04-06 10:00:00,61.7,35.2,28.05,East,90,0.0,0.0,37,0.00,,---,0.00,VWS V14.01,2013-04-06 14:00:00,
2013-04-06 10:05:00,61.7,34.5,28.05,SE,135,0.0,0.0,36,0.00,,---,0.00,VWS V14.01,2013-04-06 14:05:00,
2013-04-06 10:10:00,62.6,35.3,28.08,East,90,1.3,2.7,36,0.00,,---,0.00,VWS V14.01,2013-04-06 14:10:00,
2013-04-06 10:15:00,62.8,34.8,28.08,SE,135,2.5,2.5,35,0.00,,---,0.00,VWS V14.01,2013-04-06 14:15:00,
2013-04-06 10:20:00,63.0,34.9,28.08,East,90,0.9,2.5,35,0.00,,---,0.00,VWS V14.01,2013-04-06 14:20:00,
2013-04-06 10:25:00,63.3,35.2,28.08,ENE,68,0.9,1.3,35,0.00,,---,0.00,VWS V14.01,2013-04-06 14:25:00,
2013-04-06 10:30:00,64.2,36.0,28.08,North,0,0.0,1.3,35,0.00,,---,0.00,VWS V14.01,2013-04-06 14:30:00,
2013-04-06 10:35:00,64.4,35.5,28.08,ESE,112,0.0,0.0,34,0.00,,---,0.00,VWS V14.01,2013-04-06 14:35:00,
2013-04-06 10:40:00,64.6,35.6,28.08,East,90,0.0,2.5,34,0.00,,---,0.00,VWS V14.01,2013-04-06 14:40:00,
2013-04-06 10:45:00,64.8,35.8,28.08,WNW,292,3.1,3.1,34,0.00,,---,0.00,VWS V14.01,2013-04-06 14:45:00,
2013-04-06 10:50:00,65.1,36.1,28.08,East,90,0.9,0.9,34,0.00,,---,0.00,VWS V14.01,2013-04-06 14:50:00,
2013-04-06 10:55:00,65.1,36.1,28.08,SE,135,3.1,3.1,34,0.00,,---,0.00,VWS V14.01,2013-04-06 14:55:00,
2013-04-06 11:00:00,65.1,35.3,28.08,SSE,158,1.1,3.6,33,0.00,,---,0.00,VWS V14.01,2013-04-06 15:00:00,
2013-04-06 11:05:00,65.1,35.3,28.08,ESE,112,3.8,3.8,33,0.00,,---,0.00,VWS V14.01,2013-04-06 15:05:00,
2013-04-06 11:11:00,65.7,35.8,28.08,SSW,202,0.0,3.6,33,0.00,,---,0.00,VWS V14.01,2013-04-06 15:11:00,
2013-04-06 11:16:00,66.4,36.4,28.08,SE,135,2.5,2.5,33,0.00,,---,0.00,VWS V14.01,2013-04-06 15:16:00,
2013-04-06 11:21:00,66.4,36.4,28.08,East,90,2.9,2.9,33,0.00,,---,0.00,VWS V14.01,2013-04-06 15:21:00,
2013-04-06 11:26:00,66.2,34.7,28.08,ESE,112,2.9,2.9,31,0.00,,---,0.00,VWS V14.01,2013-04-06 15:26:00,
2013-04-06 11:31:00,66.9,36.1,28.08,SSW,202,2.9,2.9,32,0.00,,---,0.00,VWS V14.01,2013-04-06 15:31:00,
2013-04-06 11:36:00,67.3,36.4,28.08,ESE,112,1.6,1.6,32,0.00,,---,0.00,VWS V14.01,2013-04-06 15:36:00,
2013-04-06 11:41:00,67.6,36.8,28.08,ENE,68,2.7,2.7,32,0.00,,---,0.00,VWS V14.01,2013-04-06 15:41:00,
2013-04-06 11:47:00,68.5,36.7,28.08,East,90,2.9,2.9,31,0.00,,---,0.00,VWS V14.01,2013-04-06 15:47:00,
2013-04-06 11:52:00,68.0,35.4,28.08,South,180,2.5,2.5,30,0.00,,---,0.00,VWS V14.01,2013-04-06 15:52:00,
2013-04-06 11:57:00,68.5,37.5,28.08,SSE,158,0.0,2.9,32,0.00,,---,0.00,VWS V14.01,2013-04-06 15:57:00,
2013-04-06 12:02:00,69.3,36.5,28.08,ESE,112,0.0,2.0,30,0.00,,---,0.00,VWS V14.01,2013-04-06 16:02:00,
2013-04-06 12:07:00,68.9,34.5,28.08,WNW,292,3.8,3.8,28,0.00,,---,0.00,VWS V14.01,2013-04-06 16:07:00,
2013-04-06 12:12:00,68.0,34.6,28.08,SSE,158,2.5,3.8,29,0.00,,---,0.00,VWS V14.01,2013-04-06 16:12:00,
2013-04-06 12:17:00,67.5,35.0,28.08,North,0,2.2,4.0,30,0.00,,---,0.00,VWS V14.01,2013-04-06 16:17:00,
2013-04-06 12:22:00,68.5,36.7,28.08,ESE,112,1.3,2.9,31,0.00,,---,0.00,VWS V14.01,2013-04-06 16:22:00,
2013-04-06 12:27:00,68.5,37.5,28.08,North,0,0.0,3.1,32,0.00,,---,0.00,VWS V14.01,2013-04-06 16:27:00,
2013-04-06 12:32:00,69.6,38.5,28.08,North,0,2.7,2.7,32,0.00,,---,0.00,VWS V14.01,2013-04-06 16:32:00,
2013-04-06 12:37:00,70.0,38.8,28.08,WSW,248,2.0,3.4,32,0.00,,---,0.00,VWS V14.01,2013-04-06 16:37:00,
2013-04-06 12:42:00,69.6,38.5,28.08,North,0,0.9,2.7,32,0.00,,---,0.00,VWS V14.01,2013-04-06 16:42:00,
2013-04-06 12:47:00,68.4,37.4,28.08,ESE,112,3.6,3.6,32,0.00,,---,0.00,VWS V14.01,2013-04-06 16:47:00,
2013-04-06 12:52:00,68.7,37.7,28.08,WNW,292,1.1,1.6,32,0.00,,---,0.00,VWS V14.01,2013-04-06 16:52:00,
2013-04-06 12:57:00,69.1,38.0,28.08,SE,135,2.0,2.7,32,0.00,,---,0.00,VWS V14.01,2013-04-06 16:57:00,
2013-04-06 13:03:00,69.3,38.2,28.08,SSE,158,1.1,2.2,32,0.00,,---,0.00,VWS V14.01,2013-04-06 17:03:00,
2013-04-06 13:08:00,70.3,39.1,28.08,ESE,112,1.6,2.9,32,0.00,,---,0.00,VWS V14.01,2013-04-06 17:08:00,
2013-04-06 13:13:00,70.0,38.8,28.08,East,90,1.1,4.9,32,0.00,,---,0.00,VWS V14.01,2013-04-06 17:13:00,
2013-04-06 13:18:00,70.5,39.3,28.08,West,270,2.7,2.7,32,0.00,,---,0.00,VWS V14.01,2013-04-06 17:18:00,
2013-04-06 13:23:00,70.0,38.8,28.08,SSE,158,1.1,2.2,32,0.00,,---,0.00,VWS V14.01,2013-04-06 17:23:00,
2013-04-06 13:28:00,69.8,38.6,28.08,SE,135,3.6,3.6,32,0.00,,---,0.00,VWS V14.01,2013-04-06 17:28:00,
2013-04-06 13:33:00,70.5,38.5,28.08,SSE,158,0.0,2.7,31,0.00,,---,0.00,VWS V14.01,2013-04-06 17:33:00,
2013-04-06 13:38:00,70.7,39.4,28.05,East,90,0.0,2.5,32,0.00,,---,0.00,VWS V14.01,2013-04-06 17:38:00,
2013-04-06 13:43:00,70.2,39.0,28.05,NW,315,2.2,3.1,32,0.00,,---,0.00,VWS V14.01,2013-04-06 17:43:00,
2013-04-06 13:48:00,69.8,38.6,28.05,SSE,158,2.5,2.5,32,0.00,,---,0.00,VWS V14.01,2013-04-06 17:48:00,
2013-04-06 13:53:00,70.2,39.0,28.05,SSW,202,3.4,3.4,32,0.00,,---,0.00,VWS V14.01,2013-04-06 17:53:00,
2013-04-06 13:58:00,70.0,38.8,28.05,South,180,1.3,4.0,32,0.00,,---,0.00,VWS V14.01,2013-04-06 17:58:00,
2013-04-06 14:03:00,70.9,39.6,28.05,SSW,202,1.3,2.5,32,0.00,,---,0.00,VWS V14.01,2013-04-06 18:03:00,
2013-04-06 14:08:00,70.9,39.6,28.05,South,180,2.7,2.7,32,0.00,,---,0.00,VWS V14.01,2013-04-06 18:08:00,
2013-04-06 14:13:00,71.4,40.0,28.05,SSE,158,1.3,4.0,32,0.00,,---,0.00,VWS V14.01,2013-04-06 18:13:00,
2013-04-06 14:18:00,71.2,39.9,28.05,WNW,292,3.4,7.6,32,0.00,,---,0.00,VWS V14.01,2013-04-06 18:18:00,
2013-04-06 14:23:00,70.9,38.8,28.05,WNW,292,1.6,1.6,31,0.00,,---,0.00,VWS V14.01,2013-04-06 18:23:00,
2013-04-06 14:28:00,71.2,39.9,28.05,ESE,112,1.1,1.6,32,0.00,,---,0.00,VWS V14.01,2013-04-06 18:28:00,
2013-04-06 14:33:00,71.4,40.0,28.05,SSW,202,0.0,4.0,32,0.00,,---,0.00,VWS V14.01,2013-04-06 18:33:00,
2013-04-06 14:38:00,71.8,37.8,28.02,SSW,202,2.5,2.5,29,0.00,,---,0.00,VWS V14.01,2013-04-06 18:38:00,
2013-04-06 14:43:00,71.6,37.7,28.02,NE,45,1.3,1.3,29,0.00,,---,0.00,VWS V14.01,2013-04-06 18:43:00,
2013-04-06 14:48:00,71.2,37.4,28.02,North,0,1.1,2.7,29,0.00,,---,0.00,VWS V14.01,2013-04-06 18:48:00,
2013-04-06 14:53:00,71.6,37.7,28.02,SE,135,2.5,2.5,29,0.00,,---,0.00,VWS V14.01,2013-04-06 18:53:00,
2013-04-06 14:58:00,71.1,36.3,28.02,SW,225,3.8,3.8,28,0.00,,---,0.00,VWS V14.01,2013-04-06 18:58:00,
2013-04-06 15:03:00,71.1,36.3,28.02,SSE,158,1.3,1.3,28,0.00,,---,0.00,VWS V14.01,2013-04-06 19:03:00,
2013-04-06 15:08:00,70.5,35.9,28.02,East,90,2.7,2.7,28,0.00,,---,0.00,VWS V14.01,2013-04-06 19:08:00,
2013-04-06 15:13:00,70.9,36.2,28.02,SE,135,0.9,0.9,28,0.00,,---,0.00,VWS V14.01,2013-04-06 19:13:00,
2013-04-06 15:18:00,70.2,34.7,28.02,SSE,158,2.7,3.6,27,0.00,,---,0.00,VWS V14.01,2013-04-06 19:18:00,
2013-04-06 15:24:00,69.8,35.3,28.02,East,90,4.0,4.0,28,0.00,,---,0.00,VWS V14.01,2013-04-06 19:24:00,
2013-04-06 15:29:00,70.5,36.8,28.02,WNW,292,2.0,2.0,29,0.00,,---,0.00,VWS V14.01,2013-04-06 19:29:00,
2013-04-06 15:34:00,70.5,35.9,28.02,ESE,112,2.7,2.7,28,0.00,,---,0.00,VWS V14.01,2013-04-06 19:34:00,
2013-04-06 15:39:00,70.0,35.4,28.02,East,90,1.3,1.3,28,0.00,,---,0.00,VWS V14.01,2013-04-06 19:39:00,
2013-04-06 15:45:00,69.8,34.3,28.02,SSE,158,2.0,2.0,27,0.00,,---,0.00,VWS V14.01,2013-04-06 19:45:00,
2013-04-06 15:50:00,70.2,35.6,28.02,SSW,202,0.0,2.0,28,0.00,,---,0.00,VWS V14.01,2013-04-06 19:50:00,
2013-04-06 15:55:00,69.8,34.3,27.99,SSE,158,2.9,3.8,27,0.00,,---,0.00,VWS V14.01,2013-04-06 19:55:00,
2013-04-06 16:00:00,71.4,36.7,27.99,SSW,202,1.3,1.3,28,0.00,,---,0.00,VWS V14.01,2013-04-06 20:00:00,
2013-04-06 16:05:00,72.3,35.5,27.99,SW,225,3.6,4.5,26,0.00,,---,0.00,VWS V14.01,2013-04-06 20:05:00,
2013-04-06 16:10:00,73.6,36.6,27.99,SSE,158,1.3,2.2,26,0.00,,---,0.00,VWS V14.01,2013-04-06 20:10:00,
2013-04-06 16:15:00,73.6,35.6,27.99,ESE,112,1.6,4.9,25,0.00,,---,0.00,VWS V14.01,2013-04-06 20:15:00,
2013-04-06 16:20:00,72.9,35.0,27.99,SSE,158,3.8,3.8,25,0.00,,---,0.00,VWS V14.01,2013-04-06 20:20:00,
2013-04-06 16:25:00,73.2,36.3,27.99,SE,135,2.7,3.1,26,0.00,,---,0.00,VWS V14.01,2013-04-06 20:25:00,
2013-04-06 16:30:00,74.1,36.1,27.99,SSE,158,1.6,3.8,25,0.00,,---,0.00,VWS V14.01,2013-04-06 20:30:00,
2013-04-06 16:35:00,74.1,36.1,27.99,SSW,202,3.6,3.6,25,0.00,,---,0.00,VWS V14.01,2013-04-06 20:35:00,
2013-04-06 16:40:00,74.5,37.4,27.99,NE,45,0.9,2.0,26,0.00,,---,0.00,VWS V14.01,2013-04-06 20:40:00,
2013-04-06 16:45:00,74.1,36.1,27.99,SSW,202,0.9,2.7,25,0.00,,---,0.00,VWS V14.01,2013-04-06 20:45:00,
2013-04-06 16:51:00,73.9,35.9,27.99,ESE,112,6.3,6.3,25,0.00,,---,0.00,VWS V14.01,2013-04-06 20:51:00,
2013-04-06 16:56:00,73.6,35.6,27.99,SSE,158,1.6,4.7,25,0.00,,---,0.00,VWS V14.01,2013-04-06 20:56:00,
2013-04-06 17:01:00,74.1,36.1,27.99,SE,135,2.2,3.6,25,0.00,,---,0.00,VWS V14.01,2013-04-06 21:01:00,
2013-04-06 17:06:00,73.9,36.9,27.99,NW,315,0.0,2.7,26,0.00,,---,0.00,VWS V14.01,2013-04-06 21:06:00,
2013-04-06 17:11:00,72.9,36.0,27.99,ENE,68,2.9,3.8,26,0.00,,---,0.00,VWS V14.01,2013-04-06 21:11:00,
2013-04-06 17:16:00,72.9,36.0,27.99,ESE,112,0.0,2.2,26,0.00,,---,0.00,VWS V14.01,2013-04-06 21:16:00,
2013-04-06 17:22:00,71.8,35.1,27.99,SSW,202,2.9,2.9,26,0.00,,---,0.00,VWS V14.01,2013-04-06 21:22:00,
2013-04-06 17:27:00,71.2,35.6,27.99,ENE,68,3.8,4.9,27,0.00,,---,0.00,VWS V14.01,2013-04-06 21:27:00,
2013-04-06 17:32:00,71.4,36.7,27.99,SE,135,0.0,2.2,28,0.00,,---,0.00,VWS V14.01,2013-04-06 21:32:00,
2013-04-06 17:37:00,71.2,35.6,27.96,East,90,0.0,3.1,27,0.00,,---,0.00,VWS V14.01,2013-04-06 21:37:00,
2013-04-06 17:42:00,71.4,36.7,27.96,SE,135,1.6,1.6,28,0.00,,---,0.00,VWS V14.01,2013-04-06 21:42:00,
2013-04-06 17:48:00,70.7,36.0,27.96,SSE,158,2.0,2.0,28,0.00,,---,0.00,VWS V14.01,2013-04-06 21:48:00,
2013-04-06 17:53:00,69.8,34.3,27.96,ESE,112,4.0,4.0,27,0.00,,---,0.00,VWS V14.01,2013-04-06 21:53:00,
2013-04-06 17:58:00,69.6,35.1,27.96,SSW,202,3.4,3.4,28,0.00,,---,0.00,VWS V14.01,2013-04-06 21:58:00,
2013-04-06 18:03:00,69.3,35.7,27.96,East,90,0.0,2.5,29,0.00,,---,0.00,VWS V14.01,2013-04-06 22:03:00,
2013-04-06 18:08:00,69.3,34.8,27.96,ESE,112,4.0,4.0,28,0.00,,---,0.00,VWS V14.01,2013-04-06 22:08:00,
2013-04-06 18:13:00,69.1,34.6,27.96,South,180,2.2,2.2,28,0.00,,---,0.00,VWS V14.01,2013-04-06 22:13:00,
2013-04-06 18:18:00,69.3,34.8,27.96,ESE,112,2.0,2.0,28,0.00,,---,0.00,VWS V14.01,2013-04-06 22:18:00,
2013-04-06 18:23:00,69.4,35.8,27.96,East,90,1.6,4.3,29,0.00,,---,0.00,VWS V14.01,2013-04-06 22:23:00,
2013-04-06 18:28:00,69.3,35.7,27.96,SSE,158,1.6,3.1,29,0.00,,---,0.00,VWS V14.01,2013-04-06 22:28:00,
2013-04-06 18:33:00,68.4,34.0,27.96,SSE,158,0.0,3.4,28,0.00,,---,0.00,VWS V14.01,2013-04-06 22:33:00,
2013-04-06 18:38:00,67.5,34.1,27.96,ESE,112,1.1,3.4,29,0.00,,---,0.00,VWS V14.01,2013-04-06 22:38:00,
2013-04-06 18:43:00,67.1,33.8,27.96,ESE,112,1.1,3.1,29,0.00,,---,0.00,VWS V14.01,2013-04-06 22:43:00,
2013-04-06 18:48:00,67.1,33.8,27.96,East,90,2.2,3.6,29,0.00,,---,0.00,VWS V14.01,2013-04-06 22:48:00,
2013-04-06 18:53:00,66.9,33.7,27.96,ESE,112,1.3,2.9,29,0.00,,---,0.00,VWS V14.01,2013-04-06 22:53:00,
2013-04-06 18:58:00,66.6,33.3,27.96,SSW,202,0.0,0.9,29,0.00,,---,0.00,VWS V14.01,2013-04-06 22:58:00,
2013-04-06 19:03:00,66.4,33.2,27.96,WSW,248,2.2,2.2,29,0.00,,---,0.00,VWS V14.01,2013-04-06 23:03:00,
2013-04-06 19:08:00,65.8,33.6,27.96,ESE,112,0.0,2.0,30,0.00,,---,0.00,VWS V14.01,2013-04-06 23:08:00,
2013-04-06 19:13:00,65.5,33.3,27.96,SE,135,0.0,2.0,30,0.00,,---,0.00,VWS V14.01,2013-04-06 23:13:00,
2013-04-06 19:18:00,65.1,32.9,27.96,East,90,0.9,1.6,30,0.00,,---,0.00,VWS V14.01,2013-04-06 23:18:00,
2013-04-06 19:23:00,64.9,32.8,27.96,South,180,1.3,1.3,30,0.00,,---,0.00,VWS V14.01,2013-04-06 23:23:00,
2013-04-06 19:28:00,64.8,33.5,27.96,East,90,0.0,2.5,31,0.00,,---,0.00,VWS V14.01,2013-04-06 23:28:00,
2013-04-06 19:33:00,64.4,33.1,27.96,ESE,112,0.0,1.6,31,0.00,,---,0.00,VWS V14.01,2013-04-06 23:33:00,
2013-04-06 19:38:00,64.2,33.8,27.96,SW,225,0.9,0.9,32,0.00,,---,0.00,VWS V14.01,2013-04-06 23:38:00,
2013-04-06 19:43:00,64.0,34.4,27.96,South,180,0.0,0.0,33,0.00,,---,0.00,VWS V14.01,2013-04-06 23:43:00,
2013-04-06 19:48:00,63.9,34.2,27.96,SE,135,0.0,1.1,33,0.00,,---,0.00,VWS V14.01,2013-04-06 23:48:00,
2013-04-06 19:54:00,63.7,34.1,27.96,SE,135,0.9,0.9,33,0.00,,---,0.00,VWS V14.01,2013-04-06 23:54:00,
2013-04-06 19:59:00,63.5,33.9,27.96,SE,135,0.0,0.9,33,0.00,,---,0.00,VWS V14.01,2013-04-06 23:59:00,
2013-04-06 20:04:00,63.3,33.8,27.96,ESE,112,0.0,0.9,33,0.00,,---,0.00,VWS V14.01,2013-04-07 00:04:00,
2013-04-06 20:09:00,63.0,34.2,27.96,NNE,22,0.0,0.0,34,0.00,,---,0.00,VWS V14.01,2013-04-07 00:09:00,
2013-04-06 20:14:00,62.6,33.9,27.96,SE,135,1.6,3.4,34,0.00,,---,0.00,VWS V14.01,2013-04-07 00:14:00,
2013-04-06 20:19:00,62.4,33.7,27.96,ESE,112,0.0,3.1,34,0.00,,---,0.00,VWS V14.01,2013-04-07 00:19:00,
2013-04-06 20:24:00,62.2,33.5,27.96,ENE,68,0.9,0.9,34,0.00,,---,0.00,VWS V14.01,2013-04-07 00:24:00,
2013-04-06 20:29:00,61.7,33.1,27.96,ESE,112,0.0,0.0,34,0.00,,---,0.00,VWS V14.01,2013-04-07 00:29:00,
2013-04-06 20:34:00,61.5,32.9,27.96,SE,135,0.9,0.9,34,0.00,,---,0.00,VWS V14.01,2013-04-07 00:34:00,
2013-04-06 20:39:00,61.3,33.5,27.96,SE,135,1.6,1.6,35,0.00,,---,0.00,VWS V14.01,2013-04-07 00:39:00,
2013-04-06 20:45:00,61.0,33.2,27.96,SE,135,0.0,0.0,35,0.00,,---,0.00,VWS V14.01,2013-04-07 00:45:00,
2013-04-06 20:50:00,60.6,32.8,27.96,SE,135,0.0,0.0,35,0.00,,---,0.00,VWS V14.01,2013-04-07 00:50:00,
2013-04-06 20:55:00,60.4,33.4,27.96,ESE,112,0.0,1.6,36,0.00,,---,0.00,VWS V14.01,2013-04-07 00:55:00,
2013-04-06 21:00:00,60.1,33.1,27.96,South,180,1.3,1.3,36,0.00,,---,0.00,VWS V14.01,2013-04-07 01:00:00,
2013-04-06 21:05:00,60.1,33.1,27.96,ESE,112,0.0,0.0,36,0.00,,---,0.00,VWS V14.01,2013-04-07 01:05:00,
2013-04-06 21:10:00,60.1,33.1,27.96,East,90,0.0,1.1,36,0.00,,---,0.00,VWS V14.01,2013-04-07 01:10:00,
2013-04-06 21:15:00,59.9,32.9,27.96,ESE,112,1.3,1.3,36,0.00,,---,0.00,VWS V14.01,2013-04-07 01:15:00,
2013-04-06 21:20:00,59.9,32.9,27.96,East,90,0.0,0.0,36,0.00,,---,0.00,VWS V14.01,2013-04-07 01:20:00,
2013-04-06 21:25:00,60.1,33.1,27.99,East,90,1.1,1.1,36,0.00,,---,0.00,VWS V14.01,2013-04-07 01:25:00,
2013-04-06 21:30:00,60.1,33.1,27.99,East,90,0.9,1.6,36,0.00,,---,0.00,VWS V14.01,2013-04-07 01:30:00,
2013-04-06 21:35:00,60.1,33.1,27.99,ESE,112,0.0,0.0,36,0.00,,---,0.00,VWS V14.01,2013-04-07 01:35:00,
2013-04-06 21:40:00,59.7,33.4,27.99,SE,135,0.0,2.0,37,0.00,,---,0.00,VWS V14.01,2013-04-07 01:40:00,
2013-04-06 21:45:00,59.7,33.4,27.99,ESE,112,0.0,0.9,37,0.00,,---,0.00,VWS V14.01,2013-04-07 01:45:00,
2013-04-06 21:51:00,59.7,33.4,27.99,SSE,158,1.3,2.7,37,0.00,,---,0.00,VWS V14.01,2013-04-07 01:51:00,
2013-04-06 21:56:00,59.5,33.3,27.99,East,90,0.0,2.7,37,0.00,,---,0.00,VWS V14.01,2013-04-07 01:56:00,
2013-04-06 22:01:00,59.5,33.3,27.99,East,90,1.3,2.7,37,0.00,,---,0.00,VWS V14.01,2013-04-07 02:01:00,
2013-04-06 22:06:00,59.4,33.1,27.99,East,90,0.0,2.5,37,0.00,,---,0.00,VWS V14.01,2013-04-07 02:06:00,
2013-04-06 22:11:00,59.0,32.8,27.99,ESE,112,0.0,1.6,37,0.00,,---,0.00,VWS V14.01,2013-04-07 02:11:00,
2013-04-06 22:16:00,58.8,33.3,27.99,ESE,112,2.7,2.7,38,0.00,,---,0.00,VWS V14.01,2013-04-07 02:16:00,
2013-04-06 22:21:00,58.8,32.6,27.99,East,90,2.5,2.5,37,0.00,,---,0.00,VWS V14.01,2013-04-07 02:21:00,
2013-04-06 22:27:00,58.8,32.6,27.99,ESE,112,0.0,2.7,37,0.00,,---,0.00,VWS V14.01,2013-04-07 02:27:00,
2013-04-06 22:32:00,58.8,33.3,27.99,SSE,158,2.0,2.0,38,0.00,,---,0.00,VWS V14.01,2013-04-07 02:32:00,
2013-04-06 22:37:00,58.8,32.6,27.99,SE,135,1.1,2.7,37,0.00,,---,0.00,VWS V14.01,2013-04-07 02:37:00,
2013-04-06 22:42:00,58.6,32.5,27.99,SE,135,0.0,0.0,37,0.00,,---,0.00,VWS V14.01,2013-04-07 02:42:00,
2013-04-06 22:47:00,58.6,33.1,27.99,SSW,202,3.1,4.9,38,0.00,,---,0.00,VWS V14.01,2013-04-07 02:47:00,
2013-04-06 22:52:00,58.6,33.1,27.99,SSE,158,2.2,2.2,38,0.00,,---,0.00,VWS V14.01,2013-04-07 02:52:00,
2013-04-06 22:57:00,58.8,33.3,27.99,ESE,112,0.9,0.9,38,0.00,,---,0.00,VWS V14.01,2013-04-07 02:57:00,
2013-04-06 23:02:00,58.6,33.1,27.99,SW,225,6.5,6.5,38,0.00,,---,0.00,VWS V14.01,2013-04-07 03:02:00,
2013-04-06 23:07:00,58.8,33.3,27.99,East,90,1.3,1.3,38,0.00,,---,0.00,VWS V14.01,2013-04-07 03:07:00,
2013-04-06 23:12:00,58.8,33.3,27.99,East,90,1.3,1.3,38,0.00,,---,0.00,VWS V14.01,2013-04-07 03:12:00,
2013-04-06 23:17:00,58.8,33.3,27.99,SW,225,0.0,1.1,38,0.00,,---,0.00,VWS V14.01,2013-04-07 03:17:00,
2013-04-06 23:22:00,58.6,33.1,27.99,ESE,112,2.5,2.5,38,0.00,,---,0.00,VWS V14.01,2013-04-07 03:22:00,
2013-04-06 23:27:00,58.6,33.1,27.99,SSE,158,1.6,2.5,38,0.00,,---,0.00,VWS V14.01,2013-04-07 03:27:00,
2013-04-06 23:32:00,58.5,33.0,27.99,SE,135,1.1,2.5,38,0.00,,---,0.00,VWS V14.01,2013-04-07 03:32:00,
2013-04-06 23:37:00,58.6,33.1,27.99,East,90,1.1,5.4,38,0.00,,---,0.00,VWS V14.01,2013-04-07 03:37:00,
2013-04-06 23:43:00,58.5,33.0,27.99,SSW,202,1.6,2.0,38,0.00,,---,0.00,VWS V14.01,2013-04-07 03:43:00,
2013-04-06 23:48:00,58.3,32.8,27.99,SSW,202,1.6,2.7,38,0.00,,---,0.00,VWS V14.01,2013-04-07 03:48:00,
2013-04-06 23:53:00,58.1,32.7,27.99,WSW,248,2.9,5.4,38,0.00,,---,0.00,VWS V14.01,2013-04-07 03:53:00,
2013-04-06 23:58:00,58.5,33.0,27.99,SSW,202,1.3,1.3,38,0.00,,---,0.00,VWS V14.01,2013-04-07 03:58:00,